AAL2319 KPHX-KLAX

Flight info

Callsign AAL2319
Flight time 1h 1m
Altitude 30000
Route KEENS3 WLVRN ESTWD HLYWD1
Aircraft B738/M-SDE2E3FGHIRWXY/LB1

Departure

Time 2026-04-26 04:37
Airport Phoenix Sky Harbor International Airport (KPHX)

Arrival

Time 2026-04-26 05:39
Airport Los Angeles International Airport (KLAX)
Time Latitude Longitude Altitude Speed Heading
2026-04-26 04:10 33.43760 -112.00115 1123 ft 0 kts 270°
2026-04-26 04:24 33.43760 -112.00114 1123 ft 2 kts 269°
2026-04-26 04:24 33.43757 -112.00087 1119 ft 4 kts 310°
2026-04-26 04:24 33.43736 -112.00075 1117 ft 4 kts 358°
2026-04-26 04:24 33.43724 -112.00075 1116 ft 1 kts 360°
2026-04-26 04:29 33.43725 -112.00075 1117 ft 1 kts 360°
2026-04-26 04:29 33.43743 -112.00075 1114 ft 4 kts 360°
2026-04-26 04:29 33.43779 -112.00075 1115 ft 6 kts 359°
2026-04-26 04:29 33.43810 -112.00075 1118 ft 0 kts 360°
2026-04-26 04:30 33.43824 -112.00075 1121 ft 5 kts 360°
2026-04-26 04:30 33.43874 -112.00075 1121 ft 6 kts
2026-04-26 04:30 33.43905 -112.00048 1122 ft 6 kts 79°
2026-04-26 04:30 33.43904 -111.99997 1123 ft 6 kts 90°
2026-04-26 04:31 33.43904 -111.99932 1123 ft 10 kts 90°
2026-04-26 04:31 33.43904 -111.99833 1123 ft 14 kts 90°
2026-04-26 04:31 33.43904 -111.99700 1123 ft 18 kts 90°
2026-04-26 04:31 33.43904 -111.99543 1123 ft 19 kts 90°
2026-04-26 04:32 33.43904 -111.99388 1123 ft 18 kts 90°
2026-04-26 04:32 33.43904 -111.99291 1123 ft 14 kts 89°
2026-04-26 04:32 33.43896 -111.99237 1123 ft 5 kts 127°
2026-04-26 04:32 33.43856 -111.99226 1118 ft 7 kts 180°
2026-04-26 04:33 33.43793 -111.99226 1123 ft 11 kts 180°
2026-04-26 04:33 33.43710 -111.99226 1118 ft 13 kts 180°
2026-04-26 04:33 33.43608 -111.99226 1119 ft 16 kts 180°
2026-04-26 04:33 33.43487 -111.99227 1119 ft 18 kts 183°
2026-04-26 04:34 33.43365 -111.99246 1118 ft 17 kts 181°
2026-04-26 04:34 33.43258 -111.99247 1118 ft 10 kts 180°
2026-04-26 04:34 33.43202 -111.99269 1118 ft 3 kts 223°
2026-04-26 04:34 33.43199 -111.99272 1116 ft 0 kts 223°
2026-04-26 04:35 33.43178 -111.99296 1120 ft 9 kts 224°
2026-04-26 04:35 33.43125 -111.99357 1120 ft 11 kts 224°
2026-04-26 04:36 33.43104 -111.99416 1122 ft 0 kts 270°
2026-04-26 04:36 33.43104 -111.99473 1122 ft 26 kts 270°
2026-04-26 04:36 33.43104 -111.99992 1123 ft 97 kts 270°
2026-04-26 04:37 33.43105 -112.01054 1124 ft 156 kts 270°
2026-04-26 04:37 33.43111 -112.02477 1538 ft 172 kts 269°
2026-04-26 04:37 33.43078 -112.03893 2346 ft 173 kts 268°
2026-04-26 04:37 33.43030 -112.05395 2880 ft 192 kts 268°
2026-04-26 04:38 33.42926 -112.07100 3122 ft 218 kts 257°
2026-04-26 04:38 33.42374 -112.08867 3466 ft 234 kts 246°
2026-04-26 04:38 33.41746 -112.10765 3725 ft 258 kts 250°
2026-04-26 04:38 33.41134 -112.12817 4480 ft 261 kts 249°
2026-04-26 04:39 33.40527 -112.14838 5456 ft 256 kts 248°
2026-04-26 04:39 33.39909 -112.16846 6255 ft 259 kts 247°
2026-04-26 04:39 33.39297 -112.18886 6966 ft 262 kts 250°
2026-04-26 04:39 33.39129 -112.21089 7578 ft 276 kts 274°
2026-04-26 04:40 33.39465 -112.23339 8448 ft 273 kts 276°
2026-04-26 04:40 33.39818 -112.25596 9047 ft 280 kts 276°
2026-04-26 04:40 33.40181 -112.27891 9741 ft 282 kts 276°
2026-04-26 04:40 33.40552 -112.30217 10341 ft 285 kts 276°
2026-04-26 04:41 33.40928 -112.32612 10613 ft 302 kts 276°
2026-04-26 04:41 33.41315 -112.35148 10832 ft 318 kts 276°
2026-04-26 04:41 33.41725 -112.37823 11007 ft 335 kts 276°
2026-04-26 04:41 33.42141 -112.40601 11401 ft 342 kts 276°
2026-04-26 04:42 33.42558 -112.43412 11979 ft 344 kts 276°
2026-04-26 04:42 33.42979 -112.46246 12500 ft 346 kts 275°
2026-04-26 04:42 33.43397 -112.49063 13199 ft 343 kts 275°
2026-04-26 04:42 33.43814 -112.51888 13719 ft 345 kts 275°
2026-04-26 04:43 33.44225 -112.54693 14184 ft 348 kts 275°
2026-04-26 04:43 33.44649 -112.57591 14760 ft 350 kts 275°
2026-04-26 04:43 33.45048 -112.60445 15406 ft 352 kts 272°
2026-04-26 04:43 33.45198 -112.63392 16118 ft 350 kts 266°
2026-04-26 04:44 33.45195 -112.66269 16770 ft 351 kts 265°
2026-04-26 04:44 33.45175 -112.69203 17401 ft 354 kts 266°
2026-04-26 04:44 33.45182 -112.72205 18039 ft 358 kts 266°
2026-04-26 04:44 33.45211 -112.75155 18591 ft 360 kts 266°
2026-04-26 04:45 33.45250 -112.78149 19184 ft 361 kts 268°
2026-04-26 04:45 33.45632 -112.81150 19743 ft 372 kts 282°
2026-04-26 04:45 33.46590 -112.84052 20290 ft 377 kts 286°
2026-04-26 04:45 33.47624 -112.86951 20786 ft 380 kts 286°
2026-04-26 04:46 33.48675 -112.89870 21285 ft 382 kts 286°
2026-04-26 04:46 33.49725 -112.92801 21788 ft 384 kts 286°
2026-04-26 04:46 33.50775 -112.95751 22285 ft 386 kts 286°
2026-04-26 04:46 33.51821 -112.98714 22781 ft 387 kts 285°
2026-04-26 04:47 33.52868 -113.01696 23252 ft 389 kts 285°
2026-04-26 04:47 33.53917 -113.04694 23631 ft 392 kts 285°
2026-04-26 04:47 33.54971 -113.07727 23860 ft 397 kts 285°
2026-04-26 04:47 33.56037 -113.10785 24277 ft 396 kts 285°
2026-04-26 04:48 33.58142 -113.16803 25543 ft 386 kts 284°
2026-04-26 04:48 33.59172 -113.19760 26141 ft 383 kts 284°
2026-04-26 04:48 33.60191 -113.22698 26678 ft 381 kts 284°
2026-04-26 04:49 33.61204 -113.25624 27213 ft 379 kts 283°
2026-04-26 04:49 33.62210 -113.28531 27752 ft 376 kts 283°
2026-04-26 04:49 33.63209 -113.31420 28316 ft 373 kts 283°
2026-04-26 04:49 33.64201 -113.34288 28869 ft 371 kts 283°
2026-04-26 04:50 33.65184 -113.37134 29439 ft 368 kts 283°
2026-04-26 04:50 33.66163 -113.39973 29769 ft 370 kts 282°
2026-04-26 04:50 33.68130 -113.45697 29882 ft 370 kts 282°
2026-04-26 04:51 33.70077 -113.51349 29900 ft 365 kts 282°
2026-04-26 04:51 33.72006 -113.56974 29893 ft 368 kts 282°
2026-04-26 04:52 33.73953 -113.62659 29881 ft 368 kts 282°
2026-04-26 04:52 33.75904 -113.68361 29776 ft 369 kts 282°
2026-04-26 04:53 33.77857 -113.74066 29784 ft 369 kts 282°
2026-04-26 04:53 33.79799 -113.79772 29781 ft 368 kts 282°
2026-04-26 04:54 33.81735 -113.85464 29778 ft 367 kts 282°
2026-04-26 04:54 33.83658 -113.91133 29822 ft 365 kts 282°
2026-04-26 04:55 33.85571 -113.96789 29793 ft 365 kts 282°
2026-04-26 04:55 33.87480 -114.02439 29781 ft 364 kts 282°
2026-04-26 04:56 33.89386 -114.08086 29776 ft 364 kts 281°
2026-04-26 04:56 33.91044 -114.13785 29777 ft 354 kts 273°
2026-04-26 04:57 33.91996 -114.19587 29780 ft 354 kts 272°
2026-04-26 04:57 33.92926 -114.25421 29771 ft 356 kts 272°
2026-04-26 04:58 33.93891 -114.31273 29776 ft 357 kts 272°
2026-04-26 04:58 33.94876 -114.37150 29757 ft 358 kts 272°
2026-04-26 04:59 33.95868 -114.43036 29758 ft 359 kts 272°
2026-04-26 04:59 33.96857 -114.48923 29763 ft 359 kts 272°
2026-04-26 05:00 33.97352 -114.51872 29891 ft 359 kts 272°
2026-04-26 05:00 33.97845 -114.54819 29751 ft 359 kts 272°
2026-04-26 05:00 33.98830 -114.60710 29744 ft 358 kts 272°
2026-04-26 05:01 33.99803 -114.66556 29752 ft 358 kts 272°
2026-04-26 05:01 34.00779 -114.72439 29754 ft 358 kts 272°
2026-04-26 05:02 34.01752 -114.78317 29762 ft 358 kts 272°
2026-04-26 05:02 34.02722 -114.84200 29754 ft 357 kts 272°
2026-04-26 05:03 34.03688 -114.90071 29757 ft 357 kts 272°
2026-04-26 05:03 34.04649 -114.95932 29769 ft 356 kts 272°
2026-04-26 05:04 34.05607 -115.01799 29860 ft 357 kts 272°
2026-04-26 05:04 34.06568 -115.07701 29769 ft 360 kts 272°
2026-04-26 05:05 34.07535 -115.13655 29763 ft 364 kts 272°
2026-04-26 05:05 34.08509 -115.19657 29768 ft 365 kts 272°
2026-04-26 05:06 34.09485 -115.25689 29779 ft 367 kts 272°
2026-04-26 05:06 34.10462 -115.31751 29767 ft 368 kts 272°
2026-04-26 05:07 34.11434 -115.37800 29764 ft 366 kts 272°
2026-04-26 05:07 34.12398 -115.43814 29766 ft 364 kts 272°
2026-04-26 05:08 34.13352 -115.49796 29776 ft 362 kts 272°
2026-04-26 05:08 34.14299 -115.55758 29784 ft 362 kts 272°
2026-04-26 05:09 34.15245 -115.61726 29777 ft 362 kts 272°
2026-04-26 05:09 34.16182 -115.67701 29784 ft 362 kts 272°
2026-04-26 05:10 34.16297 -115.70656 29778 ft 352 kts 259°
2026-04-26 05:10 34.16002 -115.73622 29781 ft 352 kts 258°
2026-04-26 05:10 34.15391 -115.79470 29810 ft 354 kts 258°
2026-04-26 05:11 34.14800 -115.85391 29822 ft 356 kts 258°
2026-04-26 05:11 34.14221 -115.91336 29840 ft 357 kts 258°
2026-04-26 05:12 34.13639 -115.97300 29865 ft 359 kts 258°
2026-04-26 05:12 34.13053 -116.03289 29880 ft 360 kts 258°
2026-04-26 05:13 34.12462 -116.09303 29887 ft 361 kts 258°
2026-04-26 05:13 34.11870 -116.15316 29875 ft 361 kts 258°
2026-04-26 05:14 34.11282 -116.21283 29865 ft 349 kts 258°
2026-04-26 05:14 34.11003 -116.24126 29849 ft 334 kts 258°
2026-04-26 05:14 34.10729 -116.26876 29648 ft 329 kts 258°
2026-04-26 05:15 34.10456 -116.29594 29379 ft 324 kts 258°
2026-04-26 05:15 34.10176 -116.32287 29047 ft 323 kts 258°
2026-04-26 05:15 34.09885 -116.34993 28663 ft 326 kts 258°
2026-04-26 05:15 34.09593 -116.37703 28281 ft 323 kts 258°
2026-04-26 05:16 34.09306 -116.40378 27903 ft 321 kts 258°
2026-04-26 05:16 34.09021 -116.43032 27528 ft 317 kts 258°
2026-04-26 05:16 34.08739 -116.45658 27152 ft 314 kts 258°
2026-04-26 05:16 34.08459 -116.48261 26806 ft 312 kts 258°
2026-04-26 05:17 34.08179 -116.50859 26443 ft 312 kts 258°
2026-04-26 05:17 34.07899 -116.53448 26080 ft 311 kts 258°
2026-04-26 05:17 34.07619 -116.56032 25721 ft 312 kts 258°
2026-04-26 05:17 34.07335 -116.58639 25360 ft 314 kts 258°
2026-04-26 05:18 34.07075 -116.61251 24972 ft 313 kts 259°
2026-04-26 05:18 34.06838 -116.63839 24844 ft 304 kts 259°
2026-04-26 05:18 34.06614 -116.66335 24473 ft 302 kts 259°
2026-04-26 05:18 34.06381 -116.68882 24003 ft 306 kts 259°
2026-04-26 05:19 34.06144 -116.71446 23515 ft 309 kts 259°
2026-04-26 05:19 34.05984 -116.73162 23187 ft 311 kts 259°
2026-04-26 05:19 34.05744 -116.75744 22784 ft 309 kts 259°
2026-04-26 05:19 34.05427 -116.79140 22291 ft 307 kts 259°
2026-04-26 05:20 34.05267 -116.80862 22042 ft 306 kts 260°
2026-04-26 05:20 34.04951 -116.84223 21546 ft 303 kts 260°
2026-04-26 05:20 34.04712 -116.86745 21180 ft 303 kts 260°
2026-04-26 05:20 34.04551 -116.88445 21033 ft 301 kts 261°
2026-04-26 05:21 34.04170 -116.91751 20507 ft 300 kts 259°
2026-04-26 05:21 34.03943 -116.93433 20250 ft 300 kts 259°
2026-04-26 05:21 34.03610 -116.95905 19903 ft 298 kts 259°
2026-04-26 05:21 34.03284 -116.98367 19570 ft 297 kts 259°
2026-04-26 05:22 34.02963 -117.00822 19235 ft 296 kts 260°
2026-04-26 05:22 34.02645 -117.03267 18911 ft 295 kts 260°
2026-04-26 05:22 34.02348 -117.05706 18599 ft 293 kts 261°
2026-04-26 05:22 34.02066 -117.08102 18273 ft 292 kts 261°
2026-04-26 05:23 34.01780 -117.10553 17885 ft 291 kts 261°
2026-04-26 05:23 34.01497 -117.12955 17549 ft 289 kts 261°
2026-04-26 05:23 34.01219 -117.15311 17216 ft 287 kts 261°
2026-04-26 05:23 34.00938 -117.17684 16885 ft 285 kts 261°
2026-04-26 05:24 34.00657 -117.20038 16600 ft 283 kts 261°
2026-04-26 05:24 34.00378 -117.22374 16277 ft 281 kts 260°
2026-04-26 05:24 34.00101 -117.24692 15949 ft 279 kts 260°
2026-04-26 05:24 33.99825 -117.26995 15630 ft 277 kts 260°
2026-04-26 05:25 33.99550 -117.29286 15312 ft 275 kts 260°
2026-04-26 05:25 33.99277 -117.31564 14997 ft 274 kts 260°
2026-04-26 05:25 33.99009 -117.33840 14675 ft 274 kts 260°
2026-04-26 05:25 33.98743 -117.36108 14306 ft 275 kts 260°
2026-04-26 05:26 33.98475 -117.38388 13961 ft 275 kts 260°
2026-04-26 05:26 33.98207 -117.40671 13622 ft 275 kts 260°
2026-04-26 05:26 33.97940 -117.42940 13294 ft 273 kts 260°
2026-04-26 05:26 33.97674 -117.45193 12973 ft 271 kts 260°
2026-04-26 05:27 33.97408 -117.47436 12641 ft 270 kts 260°
2026-04-26 05:27 33.97349 -117.49693 12281 ft 273 kts 276°
2026-04-26 05:27 33.97738 -117.51930 11974 ft 272 kts 279°
2026-04-26 05:27 33.98153 -117.54152 11676 ft 271 kts 279°
2026-04-26 05:28 33.98562 -117.56367 11355 ft 270 kts 279°
2026-04-26 05:28 33.98963 -117.58576 11025 ft 270 kts 279°
2026-04-26 05:28 33.99357 -117.60770 10787 ft 267 kts 278°
2026-04-26 05:28 33.99744 -117.62949 10551 ft 266 kts 278°
2026-04-26 05:29 34.00130 -117.65132 10326 ft 266 kts 278°
2026-04-26 05:29 34.00511 -117.67293 10097 ft 262 kts 278°
2026-04-26 05:29 34.00644 -117.69448 9789 ft 257 kts 262°
2026-04-26 05:29 34.00412 -117.71575 9484 ft 255 kts 261°
2026-04-26 05:30 34.00186 -117.73691 9167 ft 254 kts 261°
2026-04-26 05:30 33.99969 -117.75791 8859 ft 251 kts 261°
2026-04-26 05:30 33.99784 -117.77871 8587 ft 249 kts 268°
2026-04-26 05:30 33.99888 -117.79943 8337 ft 247 kts 268°
2026-04-26 05:31 33.99688 -117.81994 8109 ft 245 kts 259°
2026-04-26 05:31 33.99412 -117.83994 7856 ft 246 kts 261°
2026-04-26 05:31 33.99185 -117.86059 7604 ft 246 kts 262°
2026-04-26 05:31 33.98973 -117.88105 7355 ft 246 kts 262°
2026-04-26 05:32 33.98760 -117.90125 7123 ft 246 kts 262°
2026-04-26 05:32 33.98541 -117.92174 6876 ft 247 kts 262°
2026-04-26 05:32 33.98323 -117.94227 6617 ft 247 kts 262°
2026-04-26 05:32 33.98103 -117.96306 6365 ft 247 kts 262°
2026-04-26 05:33 33.97886 -117.98358 6089 ft 247 kts 262°
2026-04-26 05:33 33.97670 -118.00408 5841 ft 246 kts 262°
2026-04-26 05:33 33.97457 -118.02424 5594 ft 246 kts 262°
2026-04-26 05:33 33.97243 -118.04455 5343 ft 244 kts 262°
2026-04-26 05:34 33.97031 -118.06475 5103 ft 242 kts 263°
2026-04-26 05:34 33.96821 -118.08480 4904 ft 242 kts 263°
2026-04-26 05:34 33.96609 -118.10502 4591 ft 244 kts 263°
2026-04-26 05:34 33.96397 -118.12530 4262 ft 244 kts 263°
2026-04-26 05:35 33.96185 -118.14564 3948 ft 245 kts 263°
2026-04-26 05:35 33.95972 -118.16605 3619 ft 246 kts 263°
2026-04-26 05:35 33.95758 -118.18657 3301 ft 247 kts 263°
2026-04-26 05:35 33.95797 -118.20589 3001 ft 249 kts 268°
2026-04-26 05:36 33.95466 -118.22593 2807 ft 244 kts 250°
2026-04-26 05:36 33.95018 -118.24570 2405 ft 247 kts 268°
2026-04-26 05:36 33.95014 -118.26597 2079 ft 238 kts 263°
2026-04-26 05:36 33.94713 -118.28373 2054 ft 228 kts 261°
2026-04-26 05:37 33.94634 -118.30272 1850 ft 227 kts 265°
2026-04-26 05:37 33.94409 -118.32117 1540 ft 216 kts 260°
2026-04-26 05:37 33.94168 -118.33861 1200 ft 206 kts 263°
2026-04-26 05:37 33.94029 -118.35539 853 ft 196 kts 263°
2026-04-26 05:38 33.93862 -118.37130 488 ft 186 kts 262°
2026-04-26 05:38 33.93712 -118.38600 165 ft 168 kts 262°
2026-04-26 05:38 33.93560 -118.39880 125 ft 141 kts 265°
2026-04-26 05:38 33.93474 -118.40874 123 ft 92 kts 263°
2026-04-26 05:39 33.93407 -118.41500 122 ft 66 kts 262°
2026-04-26 05:39 33.93388 -118.41867 122 ft 18 kts 306°
2026-04-26 05:39 33.93430 -118.41894 123 ft 0 kts 354°
2026-04-26 05:39 33.93438 -118.41895 123 ft 7 kts 354°
2026-04-26 05:40 33.93535 -118.41912 122 ft 21 kts 351°
2026-04-26 05:40 33.93671 -118.41916 121 ft 18 kts 42°
2026-04-26 05:40 33.93701 -118.41736 125 ft 26 kts 82°
2026-04-26 05:40 33.93726 -118.41491 121 ft 33 kts 83°
2026-04-26 05:41 33.93751 -118.41229 123 ft 29 kts 83°
2026-04-26 05:41 33.93775 -118.40998 125 ft 23 kts 83°
2026-04-26 05:41 33.93831 -118.40920 123 ft 10 kts
2026-04-26 05:41 33.93871 -118.40877 123 ft 9 kts 80°
2026-04-26 05:42 33.93901 -118.40820 122 ft 9 kts 26°
2026-04-26 05:42 33.93964 -118.40815 123 ft 11 kts 354°
2026-04-26 05:42 33.94046 -118.40825 122 ft 12 kts 354°
2026-04-26 05:42 33.94095 -118.40771 124 ft 7 kts 64°
2026-04-26 05:43 33.94105 -118.40746 122 ft 0 kts 64°